Probability
0 0 0 0 0 0 0 0 0 0 0 0 0 0 0 0 0 0 0 0 0 0 0 0 0 0 0 0 0 0 0 0 0 0 0 0 0 0 0 1 2 2 2
0 0 0 0 0 0 0 0 0 0 0 0 0 0 0 0 0 0 0 0 0 0 0 0 0 0 0 0 0 0 0 0 0 0 0 0 0 0 0 0 1 1 1
0 0 0 0 0 0 0 0 0 0 0 0 0 0 0 0 0 0 0 0 0 0 0 0 0 0 0 0 0 0 0 0 0 0 0 0 0 0 0 0 0 0 0
0 0 0 0 0 0 0 0 0 0 0 0 0 0 0 0 0 0 0 0 0 0 0 0 0 0 0 0 0 1 1 0 0 0 0 0 0 0 0 0 0 0 0
0 0 0 0 0 0 0 0 0 0 0 0 0 0 0 0 0 0 0 0 0 0 0 0 0 0 0 0 0 1 2 1 0 0 0 0 0 0 0 0 0 0 0
0 0 0 0 0 0 0 0 0 0 0 0 0 0 0 0 0 0 0 0 0 0 0 0 0 0 0 0 0 1 2 2 1 0 0 0 0 0 0 0 0 0 0
0 0 0 0 0 0 0 0 0 0 0 0 0 0 0 0 0 0 0 0 0 0 0 0 0 0 0 0 0 1 2 2 1 0 0 0 0 0 0 0 0 0 0
0 0 0 0 0 0 0 0 0 0 0 0 0 0 0 0 0 0 0 0 0 0 0 0 0 0 0 0 0 0 1 1 0 0 0 0 0 0 0 0 0 0 0
0 0 0 0 0 0 0 0 0 0 0 0 0 0 0 0 0 0 0 0 0 0 0 0 0 0 0 0 0 0 0 0 0 0 0 0 0 0 0 0 0 0 0
0 0 0 0 0 0 0 0 0 0 0 0 0 0 0 0 0 0 0 0 0 0 0 0 0 0 0 0 0 0 0 0 0 0 0 0 0 0 0 0 0 0 0
0 0 0 0 0 0 0 0 0 0 0 0 0 0 0 0 0 0 0 0 0 0 0 0 0 0 0 0 0 0 0 0 0 0 0 0 0 0 0 0 0 0 0
0 0 0 0 0 0 0 0 0 0 0 0 0 0 0 0 0 0 0 0 0 0 0 0 0 0 0 0 0 0 0 0 0 0 0 0 0 0 0 0 0 0 0
0 0 0 0 0 0 0 0 0 0 0 0 0 0 0 0 0 0 0 0 0 0 0 0 0 0 0 0 0 0 0 0 0 0 0 0 0 0 0 0 0 0 0
0 0 0 0 0 0 0 0 0 0 0 0 0 0 0 0 0 0 0 0 0 0 0 0 0 0 0 0 0 0 0 0 0 0 0 0 0 0 0 0 0 0 0
0 0 0 0 0 0 0 0 0 0 0 0 0 0 0 0 0 0 0 0 0 0 0 0 0 0 0 0 0 0 0 0 0 0 0 0 0 0 0 0 0 0 0
0 0 0 0 0 0 0 0 0 0 0 0 0 0 0 0 0 0 0 0 0 0 0 0 0 0 0 0 0 0 0 0 0 0 0 0 0 0 0 0 0 0 0
0 0 0 0 0 0 0 0 0 0 0 0 0 0 0 0 0 0 0 0 0 0 0 0 0 0 0 0 0 0 0 0 0 0 0 0 0 0 0 0 0 0 0
0 0 0 0 0 0 0 0 0 0 0 0 0 0 0 0 0 0 0 0 0 0 0 0 0 0 0 0 0 0 0 0 0 0 0 0 0 0 0 0 0 0 0
0 0 0 0 0 0 0 0 0 0 0 0 0 0 0 0 0 0 0 0 0 0 0 0 0 0 0 0 0 0 0 0 0 0 0 0 0 0 0 0 0 0 0
0 0 0 0 0 0 0 0 0 0 0 0 0 0 0 0 0 0 0 0 0 0 0 0 0 0 0 0 0 0 0 0 0 0 0 0 0 0 0 0 0 0 0
0 0 0 0 0 0 0 0 0 0 0 0 0 0 0 0 0 0 0 0 0 0 0 0 0 0 0 0 0 0 0 0 0 0 0 0 0 0 0 0 0 0 0
0 0 0 0 0 0 0 0 0 0 0 0 0 0 0 0 0 0 0 0 0 0 0 0 0 0 0 0 0 0 0 0 0 0 0 0 0 0 0 0 0 0 0
0 0 0 0 0 0 0 0 0 0 0 0 0 0 0 0 0 0 0 0 0 0 0 0 0 0 0 0 0 0 0 0 0 0 0 0 0 0 0 0 0 0 0
0 0 0 0 0 0 0 0 0 0 0 0 0 0 0 0 0 0 0 0 0 0 0 0 0 0 0 0 0 0 0 0 0 0 0 0 0 0 0 0 0 0 0
0 0 0 0 0 0 0 0 0 0 0 0 0 0 0 0 0 0 0 0 0 0 0 0 0 0 0 0 0 0 0 0 0 0 0 0 0 0 0 0 0 0 0
0 0 0 0 0 0 0 0 0 0 0 0 0 0 0 0 0 0 0 0 0 0 0 0 0 0 0 0 0 0 0 0 0 0 0 0 0 0 0 0 0 0 0
Wind_Speed
2 2 2 3 3 3 4 4 4 5 5 5 5 6 5 5 5 5 5 11 12 11 11 11 11 10 10 10 10 9 9 9 9 9 9 9 9 10 10 9 9 9 9
2 3 3 3 3 3 3 4 4 4 4 4 5 5 5 5 5 5 5 7 12 12 11 11 11 10 10 10 10 10 10 10 10 10 10 10 10 10 10 10 10 10 9
3 3 3 3 2 3 4 4 4 4 4 5 5 5 5 5 5 6 6 5 6 11 12 12 11 10 10 10 10 10 10 10 10 10 10 10 10 10 10 10 10 10 10
4 4 3 3 2 3 3 4 3 4 4 4 4 4 4 4 6 6 5 6 5 5 8 12 11 10 9 9 9 9 9 9 9 9 10 10 10 10 10 10 11 11 11
3 3 3 2 3 3 3 4 3 3 4 4 4 4 4 4 4 5 6 6 6 5 5 8 10 10 10 8 8 8 8 9 9 9 9 9 9 9 10 11 11 11 12
3 4 3 3 3 3 3 3 4 3 3 3 5 5 4 4 4 5 5 5 5 6 6 6 5 7 10 9 8 8 8 8 9 9 10 9 10 10 10 10 11 12 12
3 3 3 3 3 3 3 4 3 4 3 2 3 3 4 4 5 4 4 4 5 6 6 6 5 4 4 9 9 8 8 8 8 9 10 9 10 10 10 10 10 11 11
2 3 3 3 3 3 4 3 3 2 1 1 2 2 2 3 3 4 3 4 5 4 5 6 6 5 4 3 6 9 9 9 9 10 10 10 10 10 10 9 10 10 11
1 2 3 3 3 3 3 3 3 3 2 0 1 2 2 1 1 3 3 4 4 4 4 4 5 5 5 4 3 6 9 9 9 10 10 9 9 10 10 10 10 10 10
1 2 3 3 3 2 3 3 2 2 3 1 1 1 1 3 2 1 2 3 3 4 4 4 4 5 5 4 5 7 9 9 9 9 9 9 9 9 9 9 9 9 9
1 1 2 3 3 2 3 2 2 2 2 2 2 1 2 2 2 2 0 2 2 2 2 3 3 3 4 4 3 6 9 9 9 8 9 9 8 8 8 8 8 8 8
0 1 2 2 2 2 3 2 2 2 1 2 2 2 2 2 2 2 2 0 1 2 2 2 2 2 2 3 4 7 8 8 8 8 8 8 8 8 7 8 8 8 7
1 1 2 2 2 2 2 2 2 2 2 2 2 1 1 2 2 2 3 2 1 1 2 2 2 2 2 2 2 6 6 7 7 7 7 7 7 7 7 6 6 6 6
2 2 2 2 2 2 2 2 2 2 2 2 2 2 1 1 2 3 3 3 2 1 1 2 2 1 2 1 2 4 3 5 6 6 6 6 6 6 6 6 6 6 5
2 3 3 2 2 2 2 2 1 1 2 2 2 2 1 1 1 2 2 3 4 2 1 1 1 2 1 1 2 2 2 3 5 5 5 5 5 5 5 5 5 5 5
2 3 3 3 2 2 2 2 2 1 2 1 1 2 1 1 1 1 2 2 2 3 2 1 1 1 1 1 2 2 1 3 4 4 4 4 4 5 5 5 5 5 4
3 4 4 3 3 3 3 2 2 2 2 1 1 2 2 2 2 2 2 2 2 2 2 1 0 0 0 1 1 1 1 1 1 3 3 3 4 4 4 4 5 5 5
4 4 4 4 3 3 3 3 3 3 3 3 2 2 2 2 2 2 2 2 2 2 3 2 0 0 0 0 0 1 1 1 1 2 2 2 3 3 4 4 4 4 4
3 3 4 4 4 4 4 3 3 3 3 3 3 3 3 3 2 2 2 2 2 2 2 3 1 0 0 0 1 1 1 1 1 1 1 1 1 2 2 3 3 3 3
3 4 4 4 4 4 4 4 3 3 3 3 3 3 3 4 4 4 3 3 3 3 3 2 2 0 0 0 1 1 1 1 1 1 2 2 2 2 2 1 2 2 2
3 3 3 3 3 3 4 4 4 4 3 3 2 2 3 4 6 5 4 4 5 3 3 3 2 1 1 1 1 1 1 0 1 1 1 1 1 1 1 2 1 1 1
2 2 3 3 4 3 5 7 5 3 3 3 3 2 2 3 5 6 6 7 7 6 5 4 3 3 3 3 2 2 1 1 1 1 1 1 0 1 1 1 1 1 1
2 2 3 3 4 4 6 7 7 4 3 3 3 3 2 2 3 2 4 5 5 6 7 6 5 5 4 5 4 3 3 2 2 1 1 1 1 1 2 2 2 2 2
2 2 3 3 3 4 6 6 7 4 3 3 3 3 3 2 3 3 3 3 3 3 5 4 5 5 5 4 5 4 4 2 0 0 1 1 1 2 2 2 3 3 2
1 2 2 3 3 4 5 6 6 3 2 2 2 3 3 3 5 5 4 3 2 2 3 4 5 4 5 5 5 3 3 2 1 2 1 1 1 1 2 2 2 3 2
2 2 2 3 3 3 5 6 7 3 3 2 2 2 5 5 5 6 5 5 4 3 2 2 2 2 2 3 6 5 5 4 2 2 2 2 1 1 1 2 1 2 2
Wind_Direction
75 64 59 58 59 64 70 71 70 68 62 57 57 57 50 46 42 36 30 43 47 53 60 64 68 72 74 76 78 77 75 74 75 75 76 74 73 73 71 67 68 72 71
91 82 71 65 60 66 73 76 74 74 66 62 56 52 49 46 43 41 34 31 38 46 54 60 63 67 71 75 77 75 75 74 73 73 76 76 75 74 72 70 68 69 68
95 92 86 77 69 76 82 80 73 71 70 63 54 50 50 45 43 41 36 30 27 36 44 51 57 62 66 72 75 74 74 74 73 74 76 76 75 75 75 74 72 69 66
97 97 91 85 80 79 80 85 79 75 66 61 55 46 44 43 43 45 42 35 30 27 31 41 48 55 60 67 72 75 77 76 73 73 75 77 77 76 74 74 72 69 64
99 104 101 95 91 85 79 90 76 84 84 73 66 53 43 42 38 45 42 37 34 32 26 30 38 44 49 56 67 73 76 78 79 78 79 79 80 82 80 76 73 70 68
106 106 103 101 100 93 81 83 87 72 83 82 75 59 44 40 43 40 37 35 34 33 29 28 24 28 38 43 54 68 74 78 80 81 81 82 81 80 82 76 74 71 70
111 116 116 112 110 108 112 108 99 89 75 81 79 58 40 41 47 38 31 34 33 28 30 28 24 22 23 33 40 58 66 74 77 79 78 81 83 80 79 77 75 71 69
119 129 130 131 126 116 112 112 107 102 98 77 98 92 45 14 20 29 30 38 29 23 29 30 26 29 29 25 36 53 56 69 74 81 81 80 82 81 79 79 78 72 69
119 129 140 138 140 139 147 148 139 129 141 77 81 128 133 181 346 4 23 29 24 23 18 19 27 27 28 26 21 41 53 60 70 77 82 80 79 79 77 75 75 72 69
112 127 137 138 144 145 153 167 153 142 138 143 67 60 114 144 143 45 356 9 20 23 16 19 18 21 21 18 30 45 55 58 63 70 76 79 80 79 77 75 73 71 68
68 120 140 141 147 152 162 163 151 151 148 153 150 129 91 70 105 135 162 341 360 359 4 9 13 15 14 18 24 48 55 56 57 64 70 73 74 76 78 77 73 70 67
21 132 143 148 153 157 168 170 162 164 159 147 151 153 154 153 164 144 153 204 317 327 347 5 12 6 13 17 33 50 55 54 56 60 63 66 66 67 73 75 70 64 62
219 209 160 158 161 164 164 156 157 167 168 164 173 178 168 169 155 143 137 155 157 323 343 354 350 355 14 21 23 43 53 54 57 62 61 60 63 64 61 62 64 61 57
207 192 170 168 167 161 155 146 147 169 157 160 172 166 161 172 160 157 152 146 127 14 359 317 334 345 355 8 19 37 46 55 59 63 62 59 62 63 57 51 51 54 54
193 178 171 167 165 156 150 140 137 154 149 161 162 157 156 173 160 155 147 153 148 154 240 267 298 322 334 5 20 41 34 54 57 62 64 60 61 60 59 53 50 49 48
191 174 175 170 164 155 148 139 137 149 142 154 155 141 145 155 141 138 143 137 140 150 175 231 237 278 314 19 51 49 34 41 45 58 64 64 61 58 59 59 53 51 50
187 189 186 176 173 172 165 157 166 158 155 154 150 147 155 151 143 137 127 127 127 130 145 253 258 300 69 39 20 32 40 33 18 50 64 67 64 61 60 64 61 56 53
195 194 183 178 181 180 175 177 185 177 173 175 177 161 173 160 151 151 147 147 150 147 149 169 231 352 168 177 77 52 32 40 7 20 58 63 61 65 60 63 61 58 54
192 189 182 184 186 185 184 191 189 187 188 190 187 184 187 169 175 171 162 153 151 135 125 142 158 21 72 75 71 42 30 9 350 13 38 41 44 63 63 58 54 55 53
189 191 192 191 186 183 187 188 180 181 186 196 198 194 193 189 187 175 169 164 148 129 122 130 144 145 164 64 105 107 1 359 348 4 11 28 33 34 32 33 30 35 44
191 189 181 183 177 179 190 181 179 181 181 189 200 203 205 203 199 187 176 170 157 148 146 149 166 163 196 181 195 187 195 319 331 350 14 4 3 5 346 327 310 331 360
168 173 181 178 183 197 190 185 174 176 178 184 198 212 220 214 207 204 194 182 174 168 171 170 183 192 211 210 189 178 163 137 276 271 122 310 35 298 293 281 303 334 337
172 187 197 189 198 208 200 193 185 169 176 190 199 203 220 218 201 186 194 188 196 198 188 178 183 201 202 201 183 185 191 189 218 215 141 256 292 278 282 284 285 293 305
177 196 204 202 202 212 201 193 183 168 174 190 201 200 200 210 199 175 164 173 200 217 208 194 194 206 207 195 189 192 181 160 347 293 155 213 261 270 295 298 300 292 291
187 206 196 192 200 219 208 193 169 155 173 201 209 206 201 205 212 183 164 174 203 246 225 199 204 209 206 193 173 140 144 145 222 259 202 183 234 279 293 290 299 317 320
193 189 199 198 200 214 213 199 177 163 179 201 213 218 215 211 212 197 181 178 201 224 192 185 201 214 214 199 188 187 180 173 181 233 208 177 195 177 295 282 297 316 320